Temp
-13 -13 -13 -13 -13 -13 -13 -13 -13 -13 -13 -13 -13 -13 -13 -13 -13 -13 -13 -12 -12 -13 -12 -12 -12 -12 -12 -12 -12 -12 -12 -12 -12 -12 -12 -12 -12 -12 -11 -11 -11 -11 -11 -11 -11 -11 -11
-13 -13 -13 -13 -13 -13 -13 -13 -13 -13 -13 -13 -13 -13 -13 -13 -13 -13 -13 -13 -13 -13 -12 -12 -12 -12 -12 -12 -12 -12 -12 -12 -12 -12 -12 -12 -12 -12 -11 -11 -11 -11 -11 -11 -11 -11 -11
-14 -14 -14 -14 -13 -13 -13 -13 -13 -13 -13 -13 -13 -13 -13 -13 -13 -13 -13 -13 -13 -13 -13 -13 -12 -12 -12 -12 -12 -12 -12 -12 -12 -12 -12 -12 -12 -12 -12 -12 -11 -11 -11 -12 -12 -11 -11
-14 -14 -14 -14 -14 -14 -13 -13 -13 -13 -13 -13 -13 -13 -13 -13 -13 -13 -13 -13 -13 -13 -13 -13 -13 -13 -12 -13 -12 -12 -12 -12 -12 -12 -12 -12 -11 -11 -11 -11 -11 -11 -12 -12 -11 -11 -12
-14 -14 -14 -14 -14 -14 -14 -14 -14 -14 -14 -13 -13 -13 -13 -13 -13 -13 -13 -13 -13 -13 -13 -13 -13 -13 -12 -13 -13 -13 -12 -12 -12 -12 -12 -12 -12 -12 -11 -11 -12 -12 -12 -12 -12 -12 -11
-15 -15 -14 -14 -14 -14 -14 -14 -14 -14 -14 -14 -14 -14 -14 -13 -13 -13 -13 -14 -13 -14 -14 -13 -13 -13 -12 -12 -13 -13 -12 -12 -12 -12 -12 -12 -12 -12 -12 -12 -12 -13 -13 -13 -13 -13 -13
-15 -15 -15 -15 -15 -15 -14 -14 -14 -14 -14 -14 -14 -14 -14 -14 -14 -14 -13 -14 -14 -14 -13 -14 -13 -13 -12 -12 -12 -12 -12 -12 -12 -12 -12 -12 -12 -12 -12 -12 -12 -13 -14 -14 -14 -14 -13
-16 -16 -15 -15 -15 -15 -15 -14 -14 -14 -14 -14 -14 -14 -15 -15 -15 -14 -14 -14 -14 -15 -14 -14 -14 -14 -13 -13 -13 -12 -12 -12 -12 -12 -12 -12 -13 -13 -13 -13 -13 -14 -14 -14 -14 -14 -13
-17 -16 -16 -16 -16 -16 -15 -15 -15 -15 -14 -14 -14 -15 -15 -15 -15 -15 -15 -16 -16 -16 -16 -15 -15 -15 -14 -14 -13 -13 -13 -13 -13 -13 -13 -13 -13 -13 -13 -13 -14 -14 -14 -14 -14 -14 -15
-17 -17 -17 -16 -16 -16 -16 -16 -15 -15 -15 -15 -15 -15 -16 -16 -16 -16 -17 -17 -17 -17 -16 -16 -16 -16 -14 -15 -14 -13 -14 -14 -14 -14 -13 -13 -13 -14 -14 -14 -15 -15 -15 -15 -15 -15 -17
-19 -19 -18 -18 -18 -17 -17 -17 -16 -16 -16 -17 -17 -17 -18 -19 -19 -18 -18 -18 -17 -18 -16 -17 -16 -15 -15 -15 -14 -15 -14 -14 -14 -14 -14 -14 -14 -15 -15 -15 -15 -15 -15 -15 -16 -17 -18
-20 -20 -19 -19 -19 -19 -19 -19 -18 -18 -17 -18 -19 -19 -20 -21 -20 -19 -19 -19 -19 -18 -18 -18 -17 -16 -16 -16 -15 -15 -15 -15 -15 -15 -15 -15 -15 -15 -16 -16 -15 -16 -16 -17 -18 -19 -19
-21 -20 -20 -20 -20 -20 -20 -19 -19 -19 -20 -20 -20 -20 -20 -21 -21 -20 -20 -20 -20 -20 -19 -18 -18 -17 -17 -16 -16 -16 -16 -16 -15 -16 -15 -15 -16 -16 -16 -16 -16 -17 -18 -19 -19 -21 -20
-21 -21 -21 -20 -20 -20 -20 -20 -20 -20 -20 -21 -20 -20 -20 -21 -21 -20 -20 -20 -21 -20 -20 -19 -18 -18 -17 -16 -16 -16 -17 -16 -16 -16 -16 -17 -16 -16 -16 -17 -17 -17 -19 -19 -19 -20 -20
-22 -21 -21 -21 -21 -21 -21 -20 -20 -20 -20 -21 -20 -19 -20 -21 -21 -20 -20 -21 -20 -20 -20 -19 -19 -19 -18 -18 -17 -17 -17 -17 -16 -17 -17 -17 -17 -16 -16 -17 -18 -18 -19 -19 -19 -20 -20
-22 -22 -21 -21 -21 -21 -21 -20 -20 -20 -20 -20 -20 -20 -20 -21 -21 -21 -21 -20 -20 -20 -20 -19 -19 -19 -18 -18 -17 -17 -16 -17 -17 -18 -17 -17 -17 -17 -17 -18 -18 -19 -20 -19 -20 -20 -20
-23 -22 -22 -21 -22 -21 -21 -20 -19 -19 -20 -20 -20 -21 -21 -21 -21 -21 -21 -20 -21 -21 -20 -20 -20 -19 -18 -18 -17 -18 -17 -18 -18 -18 -17 -17 -17 -17 -18 -18 -19 -19 -20 -20 -20 -20 -20
-23 -23 -22 -22 -22 -21 -20 -19 -19 -19 -20 -20 -21 -21 -21 -21 -21 -21 -21 -21 -21 -20 -21 -21 -20 -20 -18 -18 -17 -17 -18 -19 -18 -18 -17 -17 -18 -18 -19 -19 -19 -20 -20 -20 -20 -21 -20
-24 -24 -23 -22 -22 -21 -19 -19 -19 -19 -20 -20 -20 -20 -21 -21 -21 -21 -21 -21 -21 -21 -20 -20 -21 -20 -19 -19 -18 -18 -19 -19 -19 -18 -17 -17 -18 -19 -19 -19 -19 -20 -20 -19 -20 -20 -20
-25 -24 -23 -23 -22 -21 -21 -20 -20 -20 -20 -20 -20 -20 -21 -21 -21 -21 -21 -21 -21 -21 -20 -20 -20 -20 -20 -19 -19 -20 -20 -19 -18 -18 -18 -18 -18 -19 -19 -20 -20 -20 -20 -19 -20 -20 -20
-25 -24 -24 -22 -22 -20 -21 -22 -21 -20 -20 -20 -20 -21 -20 -20 -20 -21 -21 -21 -21 -21 -20 -20 -20 -20 -20 -20 -21 -21 -20 -19 -19 -18 -18 -18 -19 -19 -20 -20 -21 -20 -19 -19 -20 -20 -20
-25 -24 -24 -23 -22 -21 -21 -22 -21 -21 -20 -21 -21 -21 -21 -21 -21 -21 -21 -20 -21 -20 -20 -20 -20 -21 -19 -20 -21 -21 -21 -20 -19 -18 -18 -18 -19 -20 -20 -21 -21 -20 -20 -20 -20 -20 -20
-25 -25 -24 -23 -23 -22 -22 -21 -21 -21 -21 -21 -21 -21 -21 -21 -21 -21 -21 -20 -20 -20 -20 -20 -20 -20 -20 -20 -21 -22 -21 -20 -19 -19 -19 -19 -19 -20 -21 -21 -20 -20 -20 -20 -20 -20 -20
-25 -25 -24 -23 -23 -22 -22 -22 -21 -21 -21 -20 -21 -20 -20 -20 -20 -20 -20 -20 -20 -20 -20 -21 -20 -20 -21 -22 -22 -21 -20 -20 -20 -19 -19 -19 -20 -21 -21 -21 -21 -21 -20 -21 -20 -20 -20
-25 -25 -24 -24 -23 -22 -22 -22 -21 -20 -20 -20 -20 -20 -20 -20 -21 -20 -20 -20 -20 -20 -21 -21 -21 -22 -23 -23 -21 -21 -20 -20 -20 -20 -19 -20 -20 -21 -22 -21 -21 -21 -21 -21 -21 -21 -21
-25 -25 -24 -24 -23 -22 -22 -22 -22 -21 -21 -20 -20 -20 -20 -20 -20 -21 -21 -20 -21 -21 -21 -22 -23 -23 -23 -22 -21 -21 -20 -20 -20 -20 -20 -20 -20 -21 -22 -22 -22 -21 -21 -21 -22 -21 -21
-26 -25 -24 -24 -23 -22 -22 -22 -22 -22 -21 -21 -20 -20 -21 -21 -21 -21 -21 -21 -22 -22 -22 -23 -23 -23 -22 -21 -21 -21 -21 -20 -20 -20 -20 -21 -21 -21 -22 -22 -22 -22 -22 -21 -22 -22 -21
-26 -25 -24 -24 -23 -23 -23 -23 -22 -22 -22 -22 -21 -21 -21 -21 -21 -21 -21 -23 -23 -22 -23 -23 -23 -22 -22 -21 -21 -21 -21 -21 -21 -21 -21 -21 -21 -22 -22 -23 -23 -22 -22 -22 -22 -22 -22
-26 -25 -25 -25 -24 -23 -24 -23 -24 -23 -23 -23 -22 -22 -21 -21 -22 -22 -23 -23 -23 -23 -23 -23 -22 -22 -22 -21 -21 -21 -21 -21 -21 -21 -21 -22 -22 -23 -23 -23 -23 -23 -23 -22 -22 -22 -22
Height
5747 5748 5749 5751 5754 5756 5757 5759 5762 5763 5764 5766 5766 5766 5768 5768 5769 5768 5772 5772 5773 5773 5776 5776 5776 5776 5776 5775 5775 5775 5776 5776 5775 5775 5775 5775 5775 5774 5774 5774 5772 5771 5773 5772 5772 5771 5770
5737 5739 5741 5742 5744 5746 5749 5750 5753 5756 5757 5758 5759 5760 5762 5763 5762 5763 5762 5766 5767 5769 5768 5770 5771 5772 5772 5771 5770 5770 5771 5770 5770 5770 5771 5770 5769 5768 5767 5767 5766 5763 5764 5763 5763 5762 5760
5725 5727 5730 5732 5733 5736 5738 5741 5743 5745 5748 5750 5751 5752 5755 5755 5757 5757 5755 5757 5760 5761 5764 5764 5765 5766 5767 5768 5766 5766 5764 5764 5764 5764 5764 5763 5762 5761 5761 5760 5759 5756 5754 5754 5752 5752 5752
5711 5714 5717 5719 5721 5724 5726 5728 5731 5734 5737 5739 5741 5743 5743 5745 5748 5749 5750 5749 5750 5753 5756 5757 5757 5758 5760 5761 5760 5760 5760 5760 5759 5758 5756 5755 5754 5753 5753 5752 5749 5748 5746 5743 5740 5741 5741
5698 5699 5702 5704 5708 5710 5713 5715 5717 5721 5725 5727 5730 5733 5732 5734 5736 5738 5740 5741 5742 5742 5745 5747 5749 5750 5751 5755 5755 5754 5755 5754 5754 5753 5752 5750 5749 5748 5747 5744 5742 5738 5738 5735 5734 5729 5729
5682 5684 5688 5690 5691 5696 5699 5702 5705 5707 5709 5714 5717 5719 5720 5722 5723 5726 5729 5730 5732 5733 5733 5737 5740 5742 5743 5746 5747 5747 5748 5748 5747 5746 5745 5743 5742 5740 5738 5736 5735 5732 5728 5725 5724 5723 5720
5665 5668 5671 5674 5677 5680 5683 5688 5690 5693 5695 5698 5702 5705 5704 5710 5710 5712 5716 5718 5719 5721 5724 5725 5730 5730 5733 5736 5737 5738 5739 5740 5739 5738 5736 5735 5734 5732 5729 5727 5726 5723 5721 5716 5714 5710 5710
5646 5650 5653 5656 5659 5663 5666 5670 5674 5677 5680 5684 5688 5690 5689 5692 5696 5699 5702 5703 5703 5705 5711 5713 5716 5720 5722 5725 5727 5728 5729 5730 5730 5729 5729 5727 5724 5723 5720 5718 5716 5714 5711 5706 5701 5698 5696
5627 5631 5635 5639 5641 5644 5647 5651 5657 5660 5664 5666 5669 5674 5674 5675 5678 5684 5686 5689 5692 5693 5696 5697 5704 5708 5712 5715 5716 5718 5720 5720 5721 5720 5719 5718 5714 5712 5710 5709 5707 5704 5703 5698 5692 5687 5679
5607 5611 5615 5619 5623 5625 5628 5633 5639 5642 5646 5649 5651 5654 5656 5658 5662 5667 5671 5674 5679 5686 5680 5684 5691 5694 5701 5703 5704 5707 5709 5711 5711 5711 5709 5709 5706 5704 5702 5700 5698 5694 5692 5688 5682 5676 5671
5590 5593 5597 5601 5604 5607 5610 5614 5619 5623 5628 5628 5632 5635 5639 5644 5643 5650 5657 5657 5669 5676 5661 5671 5679 5683 5687 5691 5693 5697 5698 5699 5700 5700 5701 5699 5696 5695 5693 5692 5690 5685 5682 5680 5674 5668 5662
5572 5576 5581 5585 5588 5591 5593 5597 5602 5604 5608 5611 5618 5624 5628 5625 5628 5635 5642 5645 5656 5657 5644 5657 5664 5671 5676 5679 5682 5685 5686 5689 5690 5690 5690 5688 5687 5686 5684 5682 5681 5677 5673 5669 5666 5663 5657
5557 5560 5565 5570 5574 5575 5577 5580 5586 5591 5593 5597 5605 5613 5615 5614 5619 5626 5628 5634 5636 5638 5641 5646 5654 5662 5664 5669 5671 5673 5676 5678 5679 5680 5680 5679 5678 5677 5677 5674 5673 5668 5665 5662 5660 5656 5655
5542 5545 5547 5553 5557 5557 5559 5564 5571 5577 5581 5582 5589 5599 5601 5601 5610 5617 5618 5618 5616 5629 5630 5637 5647 5649 5653 5660 5662 5662 5665 5669 5670 5670 5670 5670 5671 5669 5669 5667 5663 5660 5659 5658 5654 5654 5649
5526 5529 5534 5536 5539 5539 5542 5547 5554 5559 5564 5567 5571 5580 5584 5591 5600 5605 5608 5603 5611 5619 5623 5630 5633 5637 5644 5649 5654 5653 5656 5659 5660 5661 5663 5662 5662 5662 5661 5659 5657 5654 5652 5652 5648 5645 5641
5512 5515 5518 5521 5523 5523 5525 5530 5536 5540 5543 5547 5555 5564 5572 5581 5588 5592 5593 5596 5602 5607 5611 5618 5622 5626 5631 5638 5642 5641 5644 5649 5650 5652 5653 5654 5654 5654 5653 5650 5649 5647 5646 5645 5642 5639 5637
5499 5501 5504 5506 5509 5507 5510 5516 5517 5522 5526 5535 5542 5549 5560 5567 5575 5578 5581 5587 5593 5598 5602 5609 5614 5619 5624 5629 5631 5632 5636 5639 5642 5644 5646 5646 5647 5647 5645 5643 5641 5641 5641 5638 5636 5634 5630
5488 5489 5491 5495 5498 5493 5498 5501 5501 5507 5513 5520 5529 5536 5547 5555 5562 5567 5573 5579 5585 5589 5595 5601 5607 5612 5614 5616 5620 5624 5627 5631 5634 5637 5639 5639 5640 5639 5638 5637 5636 5635 5634 5631 5629 5630 5627
5477 5478 5480 5484 5487 5482 5483 5487 5492 5497 5503 5510 5517 5528 5538 5546 5550 5556 5566 5571 5576 5582 5591 5594 5599 5604 5607 5610 5615 5618 5621 5626 5629 5629 5632 5634 5634 5633 5631 5631 5630 5628 5627 5626 5624 5622 5624
5466 5470 5472 5476 5478 5478 5474 5476 5483 5490 5496 5505 5513 5519 5529 5534 5539 5551 5559 5564 5570 5578 5581 5588 5592 5596 5602 5603 5606 5611 5616 5620 5621 5625 5627 5627 5627 5627 5626 5624 5624 5622 5621 5619 5618 5617 5617
5458 5462 5465 5468 5471 5473 5474 5480 5483 5489 5496 5502 5508 5515 5527 5528 5536 5546 5554 5560 5566 5570 5576 5580 5583 5589 5596 5597 5602 5607 5611 5614 5617 5619 5621 5621 5620 5621 5620 5619 5618 5616 5615 5613 5612 5613 5612
5450 5455 5458 5460 5464 5466 5471 5479 5484 5490 5496 5502 5508 5512 5520 5529 5537 5543 5548 5554 5560 5565 5570 5574 5580 5586 5590 5594 5599 5603 5606 5610 5613 5614 5614 5615 5615 5614 5614 5614 5613 5612 5610 5609 5609 5608 5608
5443 5448 5451 5454 5459 5462 5467 5473 5482 5486 5493 5498 5506 5513 5520 5526 5531 5538 5544 5549 5553 5559 5563 5568 5572 5578 5582 5588 5593 5598 5603 5605 5607 5608 5610 5610 5609 5609 5609 5608 5607 5609 5606 5606 5606 5605 5604
5437 5441 5445 5448 5453 5457 5463 5469 5477 5483 5488 5496 5504 5509 5518 5522 5528 5533 5537 5543 5547 5552 5558 5562 5568 5571 5579 5583 5590 5594 5597 5600 5602 5604 5605 5605 5605 5604 5604 5603 5603 5604 5603 5602 5603 5603 5602
5430 5434 5439 5442 5447 5452 5457 5464 5470 5478 5485 5494 5499 5507 5512 5517 5524 5526 5532 5538 5541 5546 5550 5556 5562 5571 5575 5582 5587 5590 5593 5596 5598 5599 5599 5600 5599 5599 5600 5600 5600 5600 5600 5600 5600 5600 5599
5424 5429 5434 5438 5442 5447 5452 5458 5465 5472 5481 5488 5494 5499 5507 5512 5517 5523 5527 5532 5536 5540 5546 5553 5558 5565 5572 5579 5583 5586 5589 5591 5593 5594 5594 5595 5594 5595 5596 5596 5594 5595 5596 5596 5596 5596 5596
5419 5424 5428 5432 5436 5442 5447 5454 5461 5468 5475 5483 5489 5495 5500 5507 5513 5518 5524 5528 5532 5538 5544 5550 5557 5564 5570 5575 5579 5582 5585 5587 5588 5589 5590 5589 5588 5589 5589 5591 5588 5589 5590 5591 5592 5594 5591
5413 5419 5424 5428 5432 5438 5445 5451 5458 5464 5471 5478 5485 5493 5499 5505 5510 5515 5520 5526 5531 5537 5543 5551 5556 5562 5568 5572 5576 5579 5581 5583 5584 5585 5584 5584 5583 5583 5583 5583 5583 5584 5585 5586 5586 5586 5586
5410 5415 5421 5425 5429 5436 5442 5449 5455 5462 5469 5477 5483 5488 5495 5501 5509 5515 5519 5525 5531 5535 5543 5548 5555 5560 5565 5569 5573 5575 5578 5579 5580 5580 5580 5579 5579 5578 5578 5577 5576 5576 5578 5579 5579 5580 5581
Wind_Speed
46 46 44 41 41 40 39 36 33 34 32 32 30 28 28 26 27 25 23 23 25 23 24 25 23 22 23 20 18 19 20 22 21 22 24 25 26 27 28 30 34 36 35 37 38 39 42
50 49 49 46 44 44 44 43 42 40 38 37 36 34 33 32 31 28 29 28 27 28 26 26 25 23 23 22 23 23 25 23 23 21 21 25 27 28 29 31 33 37 37 39 41 43 44
53 54 53 51 50 50 50 48 48 46 46 45 44 43 41 38 38 36 32 33 33 32 33 31 30 28 28 24 24 24 24 26 22 22 27 30 29 30 32 35 37 40 41 42 44 46 47
60 59 59 58 58 56 56 55 56 54 54 52 49 49 49 46 44 44 41 38 37 38 38 36 35 35 35 32 30 27 26 26 29 32 32 32 33 35 37 40 43 43 45 47 52 52 49
67 65 64 64 64 63 61 61 61 62 62 60 57 55 54 54 52 50 50 47 45 43 45 42 42 41 42 37 37 34 33 32 32 32 34 34 36 38 39 41 41 43 44 46 47 51 53
71 70 70 69 67 67 67 66 65 66 65 66 63 61 59 61 57 57 55 53 53 50 49 50 47 45 43 42 40 38 36 35 35 36 36 38 41 41 40 39 39 38 42 44 46 46 49
75 75 73 72 71 70 71 70 69 68 67 68 67 66 63 64 63 62 62 62 58 57 55 54 53 51 49 46 45 44 42 41 38 39 40 41 44 45 42 42 41 41 41 43 46 49 50
77 77 77 76 75 72 71 70 72 71 67 69 69 68 68 68 67 66 65 65 66 63 59 58 57 56 53 52 51 49 45 44 42 43 44 47 45 43 42 41 40 41 42 45 50 53 55
75 75 74 74 72 71 70 70 72 71 70 69 69 70 71 73 72 71 68 68 64 63 59 61 55 57 56 52 53 53 49 47 46 45 45 45 46 43 41 40 40 41 43 47 51 54 57
65 65 66 67 67 67 67 67 68 67 67 69 70 72 73 72 73 72 68 66 61 59 63 64 55 55 59 53 52 54 50 48 47 45 44 44 44 41 39 39 40 42 46 48 51 50 48
61 60 60 60 61 63 63 66 68 70 72 71 71 70 64 62 63 67 63 62 49 50 62 61 57 50 49 52 52 49 50 49 44 42 40 42 38 37 37 38 40 44 46 47 44 41 45
61 61 59 59 59 60 60 61 64 66 68 63 59 52 48 49 54 54 54 56 54 53 62 53 60 52 50 47 48 48 49 46 42 40 38 37 36 35 35 37 41 43 41 38 32 34 37
63 61 60 59 58 60 60 61 60 59 58 56 50 44 45 47 45 40 41 48 54 60 53 56 41 52 50 46 49 44 42 43 39 37 36 36 35 34 34 37 39 37 34 24 28 25 15
61 61 60 58 61 62 64 64 63 60 58 56 52 47 49 51 47 42 38 44 54 57 64 55 52 41 50 52 46 42 38 39 34 32 35 35 33 30 32 33 34 35 22 21 26 24 22
54 55 56 54 56 59 61 60 61 63 62 60 59 54 55 53 49 47 46 56 45 48 56 55 56 55 48 49 44 40 37 37 33 31 32 30 30 29 31 31 28 26 19 25 27 24 19
51 52 52 50 51 54 55 51 51 52 55 61 62 57 55 51 49 49 51 51 47 47 55 45 51 45 48 39 41 43 40 38 30 28 28 26 27 27 29 28 24 17 23 25 24 23 20
48 49 47 44 43 47 43 41 41 45 52 51 55 58 53 52 51 53 53 51 48 48 54 59 56 57 46 47 37 36 38 31 29 25 25 23 23 25 25 24 20 16 24 23 22 23 24
45 46 45 41 35 41 35 36 46 50 51 55 55 57 52 51 54 55 53 55 48 45 47 50 52 41 39 40 34 36 28 28 23 23 22 20 22 22 21 21 18 21 25 23 21 18 18
44 45 44 37 30 34 30 32 34 39 41 44 51 50 49 48 51 52 49 52 43 46 39 39 55 47 38 36 34 28 28 24 23 20 21 21 20 19 22 18 20 25 25 24 23 19 16
43 42 39 30 22 14 15 23 26 33 38 37 42 46 47 51 52 45 47 44 49 49 44 40 40 43 38 38 26 24 23 22 18 20 19 20 17 18 18 19 23 24 24 22 23 19 17
39 38 31 28 19 24 17 21 23 28 33 37 39 37 36 41 47 47 52 39 47 41 40 39 40 44 37 24 24 22 21 18 19 20 18 15 15 17 17 17 21 24 22 19 22 20 23
37 32 28 25 20 21 31 26 29 29 30 30 29 29 27 33 38 42 46 48 47 44 41 40 40 38 35 25 23 19 20 18 19 18 14 13 14 15 16 17 15 15 14 16 17 19 23
33 31 25 23 22 20 23 30 32 23 26 30 28 27 27 34 37 40 40 40 40 48 49 48 47 45 37 30 26 18 17 17 15 14 12 12 14 14 16 17 18 15 9 16 16 15 8
30 28 23 23 24 25 27 31 32 46 48 45 37 39 44 39 38 38 40 35 37 43 42 38 37 39 31 24 19 18 16 15 14 13 11 11 13 15 16 19 21 17 11 10 14 16 12
28 24 22 24 26 27 26 29 33 34 45 44 39 39 39 33 35 39 39 35 36 34 33 32 30 26 25 22 21 18 16 14 13 11 9 10 13 18 17 18 23 19 15 13 14 17 20
26 22 22 26 29 28 27 30 34 36 37 37 34 39 38 32 30 27 31 33 30 31 29 31 35 29 25 23 20 17 14 13 11 10 9 10 12 17 21 22 24 24 24 21 19 22 22
25 22 22 27 27 29 31 34 36 34 36 38 35 36 34 33 32 33 28 26 29 29 32 32 29 25 24 22 20 17 13 11 10 10 10 11 14 16 20 25 29 24 24 25 21 21 22
24 22 24 23 30 31 33 34 34 31 34 34 32 31 32 33 33 28 24 24 26 26 29 29 27 25 23 21 18 14 12 10 9 9 11 13 15 19 22 25 28 26 25 24 23 22 23
25 24 26 24 34 35 32 29 27 30 31 30 30 30 34 30 25 27 26 27 31 32 27 28 25 24 22 18 16 12 10 9 9 10 13 15 17 20 23 24 27 28 28 25 21 21 24
Wind_Direction
257 258 256 256 257 259 260 262 257 259 259 261 262 260 257 257 261 257 258 260 264 262 269 273 274 272 271 268 272 278 282 279 282 281 282 283 283 281 280 279 278 274 272 272 266 268 270
258 258 260 260 259 259 259 261 260 259 259 257 261 262 260 260 259 259 258 263 260 266 262 268 268 268 269 268 273 279 276 280 275 276 286 286 283 283 284 283 280 283 278 278 276 275 275
258 259 261 261 262 262 262 262 262 261 260 259 260 262 262 262 264 262 258 260 262 264 265 265 267 268 272 274 277 283 279 278 267 273 289 290 291 292 293 290 289 286 285 282 278 278 280
258 259 261 261 262 262 263 264 266 265 263 262 260 259 261 260 259 261 260 259 260 264 264 267 266 269 270 273 277 279 282 281 276 281 289 293 294 296 296 294 290 288 285 284 284 284 281
258 258 259 260 260 261 261 263 264 265 265 264 262 261 260 260 260 258 260 260 259 259 263 266 266 268 271 271 274 275 279 278 276 280 285 288 291 294 291 288 289 287 284 284 283 283 285
261 261 260 260 261 264 264 265 264 265 265 265 263 260 259 258 258 260 262 258 260 259 259 262 264 265 265 268 270 273 275 276 276 280 283 288 292 291 286 286 282 280 283 282 284 282 283
263 263 264 264 264 264 265 266 265 263 263 262 263 262 259 259 258 258 258 263 260 258 257 260 261 261 263 264 266 268 273 276 278 284 285 287 290 288 285 283 283 282 281 281 281 284 284
261 262 263 263 263 264 265 266 267 264 262 262 262 261 261 259 259 257 257 259 262 263 260 259 260 261 259 261 263 265 266 270 273 276 279 283 285 284 281 281 280 281 283 286 288 289 288
263 263 263 263 263 262 262 263 262 261 261 260 260 260 258 259 259 257 257 259 264 262 266 258 259 260 261 260 261 262 265 268 271 273 277 283 281 280 279 280 281 282 284 288 292 294 294
262 262 261 262 262 260 259 259 257 257 258 258 258 257 257 256 256 256 259 260 257 262 250 258 259 260 260 261 261 262 264 267 271 274 277 278 277 277 279 280 283 285 290 294 297 298 305
262 260 259 259 258 258 256 256 256 255 254 256 256 257 258 259 255 254 253 251 246 255 257 257 259 256 256 257 262 259 259 262 265 269 274 277 277 277 279 282 284 292 296 298 298 305 310
257 258 258 257 258 258 258 257 257 257 256 255 254 253 250 247 251 249 248 248 247 240 258 254 250 255 253 249 256 260 257 257 260 266 272 276 275 275 278 284 289 295 300 299 308 316 314
259 256 256 255 255 256 256 254 253 252 255 256 252 241 242 245 245 244 244 244 240 233 248 239 250 248 252 262 264 248 250 257 260 266 270 272 271 272 279 287 293 300 299 309 311 315 311
261 257 256 255 255 255 254 253 253 251 250 249 249 242 237 243 243 244 247 245 240 236 236 243 241 250 245 253 257 252 251 255 257 263 267 269 270 273 283 291 299 303 299 303 296 299 263
260 259 257 255 255 255 255 255 254 252 249 247 245 240 239 240 241 242 243 246 248 245 241 237 241 252 247 245 251 253 253 251 255 262 261 263 268 278 286 294 300 294 290 296 289 302 265
262 260 258 257 258 258 256 256 252 248 245 242 244 242 238 238 237 238 239 247 248 243 238 239 233 251 245 252 255 241 245 253 253 256 255 262 271 279 289 295 295 275 293 288 291 293 267
264 261 260 260 261 262 259 254 248 240 236 235 234 233 233 232 230 233 237 245 246 244 236 242 247 246 247 248 245 243 247 247 249 248 251 262 275 283 290 290 278 274 288 279 283 282 264
265 263 261 260 268 269 257 240 232 230 225 224 224 225 225 226 227 230 235 234 243 233 239 242 237 254 242 236 234 244 246 244 243 244 252 266 271 281 284 282 262 268 285 289 277 277 260
263 263 264 264 271 269 253 241 228 223 219 223 217 217 217 219 224 229 233 237 233 232 238 242 242 256 259 234 235 241 247 241 238 244 256 260 268 276 281 275 261 270 281 292 270 254 251
258 260 264 269 253 217 251 188 201 203 205 207 211 214 214 219 224 221 225 229 226 233 233 238 243 244 255 226 225 231 231 232 239 246 253 259 269 273 273 268 268 275 283 281 253 244 247
254 254 259 250 228 195 177 195 193 195 199 204 207 212 223 214 207 224 220 230 223 229 236 238 240 241 246 229 224 221 223 232 239 248 250 261 271 275 253 266 267 276 279 259 244 248 247
249 249 243 245 229 209 182 180 191 192 193 201 208 211 207 213 215 218 225 226 221 230 236 236 239 237 234 227 217 216 217 229 236 238 250 263 268 266 253 260 252 265 262 251 242 246 252
241 241 233 232 219 208 183 189 202 192 195 203 208 204 215 233 221 221 224 244 234 236 238 239 230 231 231 225 211 202 219 226 230 238 247 261 271 261 253 256 254 257 274 230 235 248 233
230 225 229 221 211 201 195 188 195 204 201 207 210 210 219 228 230 233 236 246 241 236 227 219 221 220 211 192 201 207 214 222 226 236 248 262 263 248 257 262 262 266 269 257 247 249 245
218 217 215 213 207 198 198 195 187 197 204 203 199 211 224 232 227 236 242 240 226 220 213 214 214 190 183 191 203 206 212 220 228 240 251 261 261 243 247 265 256 256 266 268 273 258 244
213 212 208 203 195 193 198 200 197 184 185 197 199 211 216 219 227 221 219 216 217 214 207 190 176 179 181 198 198 206 213 223 236 252 265 272 262 248 241 249 261 252 258 261 264 259 258
207 205 200 193 190 189 194 191 194 192 192 195 196 200 206 208 210 208 205 209 210 195 186 177 176 174 187 190 194 203 214 229 243 261 274 275 273 260 246 246 251 254 250 252 257 253 255
203 199 193 189 188 178 185 184 187 189 188 190 195 201 203 207 202 202 204 191 194 191 181 169 176 181 185 189 196 204 219 233 248 267 278 275 274 264 257 246 251 252 251 252 251 257 255
196 191 187 186 182 174 176 170 176 185 188 191 196 201 202 199 191 192 191 188 175 167 167 178 177 185 187 190 196 208 222 240 267 274 274 270 270 260 256 255 253 252 246 246 249 259 246